Powrót do katalogu

METEOR 2-11 DEB

AktywnyPO
NORAD 60008·DEBRIS·🇷🇺 Russia

Wystrzelony Jul 5, 1984 z Plesetsk Cosmodrome

Loading…

Następne Przeloty (najbliższe 24 godziny)

TLE

NieaktualneSource: Space-Track

Epoka: Aug 21, 2026, 09:06 UTC

1 60008U 84072AD  26233.37955382  .00001012  00000-0  57671-3 0  9996
2 60008  82.5052 267.9062 0031543  30.4361 329.8635 14.08649394643358

Śledź METEOR 2-11 DEB w czasie rzeczywistym z AllMySat

Download on the App Store